Content
SEND FEEDBACK

Daily
Averages
Monthly
Summary
United States of America

POINT PLEASANT, WEST VIRGINIA


Home > North America > United States > West Virginia
Elevation: 17 meters     Latitude: 38 51N     Longitude: 082 08W

WEATHER
 
SELECT A DAY
Number of Records: 222,530;   Date Range: 10/27/05 - 12/18/14
 
SHARE

PRINT THIS DATA

[ ← Previous Day ]
WEATHER ALMANAC - 31 JANUARY, 2013
[ Next Day → ]
[ °F ]   °C
Weather ElementAverageHighLow
Temperature-0.7 °C3 °C (12:35 am)-2 °C (9:35 am)
Dewpoint-5 °C2 °C (12:35 am)-9 °C (1:55 pm)
Humidity73.3 %93 % (12:35 am)51 % (2:35 pm)
Barometer1010.5 hPa1014.2 hPa (4:15 pm)999.3 hPa (12:35 am)
Wind Speed15.8 km/h29.6 km/h (5:35 am)
Wind Gust53.8 km/h (5:35 am)
Weather ElementAverage
Visibility13.4 km
Wind DirectionWSW (247.6 °)

Weather ElementTotal
Precipitation---
Heating Degree Days17.8 (Base 18.3)
Averaged from 71 records on 31 January, 2013
WEATHER CONDITIONS BREAKOUT
WIND DIRECTION BREAKOUT
WEATHER BY HOUR - 31 JANUARY, 2013
[ °F ]   °C
Local TimeTemperatureDewpointHumidityBarometerVisibilityWind DirectionWind SpeedGust SpeedPrecipitationEventsConditions
12:35 AM3 °C2 °C93 %999.3 hPa16.1 kmWest (280°)24.1 km/h29.6 km/hRainLight Rain
12:55 AM2 °C0 °C87 %1000.3 hPa8 kmWest (270°)16.7 km/h35.2 km/hRainLight Rain
1:15 AM2 °C0 °C87 %1000.7 hPa8 kmWest (260°)14.8 km/h33.3 km/hLight Drizzle
1:35 AM2 °C0 °C87 %1001.4 hPa16.1 kmWSW (250°)27.8 km/h38.9 km/hOvercast
1:55 AM2 °C-1 °C81 %1002 hPa16.1 kmWest (270°)24.1 km/h38.9 km/hOvercast
2:15 AM1 °C-2 °C81 %1003 hPa16.1 kmWest (270°)16.7 km/h37 km/hOvercast
2:35 AM1 °C-2 °C81 %1003.4 hPa11.3 kmWest (260°)16.7 km/h38.9 km/hSnowLight Snow
2:55 AM1 °C-2 °C81 %1003.7 hPa16.1 kmWSW (250°)11.1 km/h27.8 km/hOvercast
3:15 AM1 °C-3 °C75 %1004.1 hPa16.1 kmWest (270°)13 km/h38.9 km/hOvercast
3:35 AM0 °C-3 °C80 %1004.4 hPa16.1 kmWest (260°)20.4 km/h29.6 km/hOvercast
3:55 AM0 °C-4 °C75 %1004.7 hPa16.1 kmWest (260°)18.5 km/h38.9 km/hOvercast
4:15 AM0 °C-5 °C69 %1005.1 hPa16.1 kmWSW (250°)22.2 km/h38.9 km/hOvercast
4:35 AM0 °C-4 °C75 %1005.4 hPa16.1 kmWest (260°)13 km/h27.8 km/hOvercast
4:55 AM0 °C-3 °C80 %1005.8 hPa11.3 kmWSW (250°)16.7 km/h37 km/hSnowLight Snow
5:15 AM0 °C-3 °C80 %1006.1 hPa11.3 kmWest (260°)18.5 km/h37 km/hSnowLight Snow
5:35 AM0 °C-3 °C80 %1006.4 hPa8 kmWSW (250°)29.6 km/h53.8 km/hSnowLight Snow
5:55 AM0 °C-5 °C69 %1007.1 hPa16.1 kmWest (260°)16.7 km/h37 km/hOvercast
6:15 AM0 °C-5 °C69 %1007.5 hPa16.1 kmWest (260°)20.4 km/h44.4 km/hMostly Cloudy
6:35 AM0 °C-6 °C64 %1007.8 hPa16.1 kmWSW (250°)24.1 km/h46.3 km/hScattered Clouds
6:55 AM0 °C-7 °C60 %1008.1 hPa16.1 kmWSW (250°)24.1 km/h50.1 km/hScattered Clouds
7:15 AM-1 °C-7 °C64 %1008.8 hPa16.1 kmWSW (250°)18.5 km/h38.9 km/hOvercast
7:35 AM-1 °C-7 °C64 %1009.1 hPa16.1 kmWest (260°)16.7 km/h44.4 km/hOvercast
7:55 AM-1 °C-7 °C64 %1009.8 hPa16.1 kmWest (280°)22.2 km/h40.7 km/hOvercast
8:15 AM-1 °C-8 °C60 %1010.2 hPa16.1 kmWSW (250°)18.5 km/h42.6 km/hOvercast
8:35 AM-1 °C-7 °C64 %1010.5 hPa16.1 kmWSW (250°)16.7 km/h29.6 km/hOvercast
8:55 AM-1 °C-7 °C64 %1010.5 hPa16.1 kmWSW (250°)20.4 km/h37 km/hOvercast
9:15 AM-1 °C-6 °C69 %1011.2 hPa4.8 kmWSW (250°)14.8 km/h31.5 km/hSnowLight Snow
9:35 AM-2 °C-6 °C74 %1011.5 hPa16.1 kmWest (280°)11.1 km/h33.3 km/hOvercast
9:55 AM-1 °C-6 °C69 %1011.5 hPa11.3 kmWest (280°)13 km/hSnowLight Snow
10:15 AM-2 °C-5 °C80 %1012.2 hPa1.3 kmWest (260°)16.7 km/h29.6 km/hSnowLight Snow
10:35 AM-2 °C-4 °C86 %1012.5 hPa3.2 kmWest (260°)14.8 km/h33.3 km/hSnowLight Snow
10:55 AM-1 °C-5 °C75 %1012.5 hPa16.1 kmWSW (250°)18.5 km/h25.9 km/hScattered Clouds
11:15 AM-1 °C-6 °C69 %1012.5 hPa16.1 kmWSW (250°)14.8 km/h33.3 km/hScattered Clouds
11:35 AM-1 °C-6 °C69 %1012.9 hPa16.1 kmWest (260°)18.5 km/h33.3 km/hMostly Cloudy
11:55 AM-1 °C-7 °C64 %1013.2 hPa11.3 kmWest (260°)16.7 km/h38.9 km/hSnowLight Snow
12:15 PM-2 °C-5 °C80 %1013.5 hPa3.2 kmWNW (290°)18.5 km/h33.3 km/hSnowLight Snow
12:35 PM-1 °C-6 °C69 %1013.2 hPa16.1 kmWest (280°)18.5 km/h27.8 km/hOvercast
12:55 PM-1 °C-7 °C64 %1013.9 hPa11.3 kmWNW (290°)20.4 km/h33.3 km/hSnowLight Snow
1:15 PM-2 °C-7 °C69 %1013.5 hPa16.1 kmWest (270°)16.7 km/h33.3 km/hMostly Cloudy
1:35 PM-1 °C-8 °C60 %1013.5 hPa16.1 kmWest (270°)14.8 km/hMostly Cloudy
1:55 PM-1 °C-9 °C55 %1013.5 hPa16.1 kmWNW (290°)13 km/h33.3 km/hOvercast
2:15 PM-1 °C-9 °C55 %1013.5 hPa16.1 kmWSW (250°)29.6 km/h40.7 km/hMostly Cloudy
2:35 PM0 °C-9 °C51 %1013.5 hPa16.1 kmWest (270°)13 km/h33.3 km/hMostly Cloudy
2:55 PM0 °C-8 °C55 %1013.5 hPa16.1 kmWSW (250°)20.4 km/h29.6 km/hScattered Clouds
3:15 PM0 °C-7 °C60 %1013.9 hPa16.1 kmWSW (250°)14.8 km/h31.5 km/hMostly Cloudy
3:35 PM0 °C-7 °C60 %1013.9 hPa16.1 kmWSW (240°)27.8 km/h37 km/hScattered Clouds
3:55 PM-1 °C-7 °C64 %1013.9 hPa16.1 kmWest (270°)13 km/h25.9 km/hMostly Cloudy
4:15 PM-1 °C-5 °C75 %1014.2 hPa1.9 kmWSW (250°)14.8 km/hSnowLight Snow
4:35 PM-1 °C-5 °C75 %1014.2 hPa16.1 kmWSW (240°)13 km/hScattered Clouds
4:55 PM-1 °C-5 °C75 %1013.9 hPa16.1 kmWSW (250°)13 km/h27.8 km/hClear
5:15 PM-1 °C-6 °C69 %1013.9 hPa16.1 kmWSW (250°)9.3 km/hClear
5:35 PM-1 °C-6 °C69 %1013.9 hPa16.1 kmWSW (250°)14.8 km/hScattered Clouds
5:55 PM-1 °C-7 °C64 %1013.9 hPa16.1 kmWSW (250°)13 km/hScattered Clouds
6:15 PM-1 °C-6 °C69 %1013.9 hPa11.3 kmWSW (250°)9.3 km/hSnowLight Snow
6:35 PM-2 °C-6 °C74 %1013.5 hPa16.1 kmCalmMostly Cloudy
6:55 PM-2 °C-6 °C74 %1013.9 hPa16.1 kmSW (230°)7.4 km/hScattered Clouds
7:15 PM-2 °C-6 °C74 %1013.9 hPa16.1 kmSW (230°)9.3 km/hScattered Clouds
7:35 PM-2 °C-6 °C74 %1013.9 hPa16.1 kmSW (220°)7.4 km/hMostly Cloudy
7:55 PM-1 °C-5 °C75 %1013.9 hPa16.1 kmSW (230°)13 km/hScattered Clouds
8:15 PM-1 °C-5 °C75 %1013.9 hPa16.1 kmWSW (240°)11.1 km/hScattered Clouds
8:35 PM-1 °C-5 °C75 %1013.9 hPa16.1 kmSW (230°)9.3 km/hScattered Clouds
8:55 PM-1 °C-5 °C75 %1013.5 hPa16.1 kmSW (220°)7.4 km/hScattered Clouds
9:15 PM-1 °C-5 °C75 %1013.5 hPa16.1 kmCalmScattered Clouds
9:35 PM-1 °C-5 °C75 %1013.5 hPa11.3 kmWSW (240°)5.6 km/hSnowLight Snow
9:55 PM-1 °C-4 °C80 %1013.5 hPa4.8 kmWSW (250°)9.3 km/hSnowLight Snow
10:15 PM-2 °C-3 °C93 %1013.2 hPa4 kmWSW (240°)11.1 km/hSnowLight Snow
10:35 PM-2 °C-3 °C93 %1012.9 hPa4 kmWSW (240°)13 km/hSnowLight Snow
10:55 PM-2 °C-3 °C93 %1012.5 hPa4 kmWSW (240°)11.1 km/hSnowLight Snow
11:15 PM-2 °C-3 °C93 %1012.2 hPa8 kmWSW (250°)14.8 km/hSnowLight Snow
11:35 PM-2 °C-3 °C93 %1012.2 hPa16.1 kmWSW (240°)18.5 km/h25.9 km/hMostly Cloudy
11:55 PM-2 °C-4 °C86 %1012.2 hPa11.3 kmWSW (240°)20.4 km/h27.8 km/hOvercast
Hourly data recorded from K3I2, located 0 kilometers away from Point Pleasant, West Virginia







STORIES FROM OUR PARTNERS